Location: Presov
(49.0000°N, 21.2500°E)
Time: 11:16:51
(UTC+02:00)

Vanguard 1 - Visible Passes

Search period start: 19 April 2021 00:00
Search period end: 29 April 2021 00:00
Orbit: 648 x 3834 km, 34.3° (Epoch: 18 April)

Date Brightness Start Highest point End Pass type
(mag) Time Alt. Az. Time Alt. Az. Time Alt. Az.
19 Apr 13.6 20:52:20 10° W 21:10:12 30° SW 21:26:00 10° SSE visible
20 Apr 13.7 21:14:28 10° W 21:30:26 24° SW 21:44:47 10° S visible
21 Apr 13.8 21:37:20 10° W 21:50:32 19° SW 22:02:40 10° SSW visible
22 Apr 14.0 22:01:53 10° WSW 22:10:32 13° SW 22:18:44 10° SSW visible
23 Apr 13.8 19:52:21 10° W 20:09:33 30° SW 20:26:48 10° SSE visible
24 Apr 13.9 20:14:23 10° W 20:29:56 25° SW 20:45:29 10° S visible
25 Apr 14.0 20:37:09 10° W 20:50:12 19° SW 21:03:16 10° SSW visible
26 Apr 14.2 21:01:36 10° WSW 21:10:22 14° SW 21:19:11 10° SSW visible
